Location: Hartford
(41.7640°N, 72.6860°W)
Time: 19:49:20
(UTC-05:00)

Amateur Radio Satellites - All Passes

Search period start: 05 December 2016 19:19
Search period end: 06 December 2016 19:19
Location: Hartford, 41.7640°N, 72.6860°W

Satellite Date Start Highest point End Downlink Frequencies (MHz)
Time Altitude Azimuth
CINEMA 3 05 Dec 19:21:15 19:25:32 29° 266° (W) 19:29:55 145.822/145.860
SO-50 05 Dec 19:28:18 19:32:44 39° 116° (ESE) 19:37:07 436.795
ZACube-1 05 Dec 19:32:12 19:36:30 42° 72° (ENE) 19:40:45 437.345
Cosmos 2504 05 Dec 19:32:49 19:41:02 68° 93° (E) 19:49:45 435.465 / 435.565
DELFI C3 05 Dec 19:34:24 19:36:08 13° 64° (ENE) 19:37:54 145.870
Cosmos 2491 05 Dec 19:35:39 19:42:36 28° 278° (W) 19:49:32 435.465 / 435.565
CUTE 1.7 + AOD 2 05 Dec 19:38:34 19:42:06 26° 265° (W) 19:45:39 437.475
FUNcube-1 05 Dec 19:40:09 19:44:30 47° 73° (ENE) 19:48:48 145.935
CUBEBUG 2 05 Dec 19:42:08 19:46:50 62° 260° (W) 19:51:33 437.445
STRAND 1 05 Dec 19:51:48 19:56:44 50° 289° (WNW) 20:01:37 437.568
CANX-2 05 Dec 19:57:54 20:00:14 14° 269° (W) 20:02:35 2200.000
YUBILEINY 05 Dec 20:02:12 20:10:26 45° 286° (WNW) 20:18:46 435.215
AAUSAT CUBESAT 2 05 Dec 20:04:11 20:07:59 36° 262° (W) 20:11:48 437.432
Oscar 11 05 Dec 20:11:30 20:15:50 83° 260° (W) 20:20:10 145.826/435.025
SEEDS 05 Dec 20:25:02 20:26:46 12° 270° (W) 20:28:30 437.485
UWE-3 05 Dec 20:26:20 20:30:32 33° 264° (W) 20:34:44 435.000/436.395/437.385
HO-68 05 Dec 20:32:01 20:36:27 17° 270° (W) 20:40:55 435.675
CUSAT 1 05 Dec 20:32:26 20:35:58 52° 262° (W) 20:40:35 437.405
COMPASS 1 05 Dec 20:36:00 20:38:03 13° 269° (W) 20:40:08 437.405
AIST 1 05 Dec 20:44:23 20:47:29 19° 289° (WNW) 20:50:38
ISS 05 Dec 20:52:46 20:55:23 21° 17° (NNE) 20:57:58 145.825
PCSat 05 Dec 21:01:37 21:06:54 54° 246° (WSW) 21:12:09 145.827
HUMSAT D 05 Dec 21:04:20 21:08:32 73° 76° (ENE) 21:12:43 437.325/437.525
DELFI C3 05 Dec 21:06:41 21:10:31 51° 260° (W) 21:14:21 145.870
SO-50 05 Dec 21:09:08 21:13:17 29° 314° (NW) 21:17:22 436.795
PRISM 05 Dec 21:09:33 21:13:43 87° 103° (ESE) 21:17:54 437.425
ZACube-1 05 Dec 21:09:42 21:12:56 19° 267° (W) 21:16:09 437.345
DANDE 05 Dec 21:14:20 21:17:07 68° 261° (W) 21:20:29 436.750
FUNcube-1 05 Dec 21:18:00 21:20:57 17° 268° (W) 21:23:52 145.935
Cosmos 2504 05 Dec 21:28:15 21:35:11 28° 294° (WNW) 21:42:26 435.465 / 435.565
UNISAT 6 05 Dec 21:34:13 21:38:16 34° 97° (E) 21:42:12 437.425
JAS-2 05 Dec 21:54:15 21:55:44 11° 89° (E) 21:57:13 435.910
SPROUT 05 Dec 21:59:19 22:00:44 11° 61° (ENE) 22:02:09 437.525
TIGRISAT 05 Dec 22:04:07 22:08:32 69° 102° (ESE) 22:12:48 435.000
ANTELSAT 05 Dec 22:05:28 22:09:54 76° 103° (ESE) 22:14:12 437.575/2403.000
ESTCUBE 1 05 Dec 22:10:54 22:15:16 56° 73° (ENE) 22:19:40 437.505/2401.250
AISAT 05 Dec 22:19:38 22:23:30 31° 69° (ENE) 22:27:25 437.250
QB50P2 05 Dec 22:23:42 22:25:49 13° 91° (E) 22:27:55 145.880/145.840
POLYITAN 1 05 Dec 22:24:26 22:26:21 13° 91° (E) 22:28:14 437.675
ISS 05 Dec 22:28:56 22:32:15 89° 27° (NNE) 22:35:33 145.825
50 SAT 05 Dec 22:32:40 22:35:40 27° 70° (ENE) 22:38:42 437.505
QB50P1 05 Dec 22:36:46 22:39:40 18° 93° (E) 22:42:32 145.935-145.965
Cosmos 2499 05 Dec 22:38:20 22:42:55 16° 75° (ENE) 22:47:33 435.465 / 435.565
DUCHIFAT 1 05 Dec 22:40:10 22:42:51 16° 92° (E) 22:45:31 145.980
CUBEBUG 1 05 Dec 22:46:08 22:50:29 82° 75° (ENE) 22:54:54 437.445
GONETS M04 05 Dec 22:47:10 22:51:54 16° 76° (ENE) 22:56:38
VELOX 1 05 Dec 22:55:58 23:00:21 71° 74° (ENE) 23:04:46 145.980
POPSAT HIP 1 05 Dec 22:57:36 23:01:20 29° 96° (E) 23:05:01 437.405
DX 1 05 Dec 23:10:35 23:14:50 55° 73° (ENE) 23:19:07 434.975-435.025
UNISAT 6 05 Dec 23:11:22 23:14:45 22° 294° (WNW) 23:18:04 437.425
UKube-1 05 Dec 23:18:29 23:22:39 50° 72° (ENE) 23:26:50 .
TISAT 1 05 Dec 23:21:19 23:23:44 15° 64° (ENE) 23:26:11 437.305
SPROUT 05 Dec 23:31:45 23:36:03 72° 259° (WSW) 23:40:22 437.525
JAS-2 05 Dec 23:36:15 23:41:27 80° 286° (WNW) 23:46:52 435.910
BUGSAT 1 05 Dec 23:37:52 23:41:27 27° 96° (E) 23:44:59 437.445
TIGRISAT 05 Dec 23:42:55 23:44:35 12° 299° (WNW) 23:46:15 435.000
ANTELSAT 05 Dec 23:44:43 23:45:55 11° 300° (WNW) 23:47:07 437.575/2403.000
ESTCUBE 1 05 Dec 23:50:07 23:52:25 14° 269° (W) 23:54:44 437.505/2401.250
NANOSAT C BR1 05 Dec 23:52:10 23:56:24 70° 284° (WNW) 00:00:34 145.865
AISAT 05 Dec 23:56:19 23:59:57 25° 265° (W) 00:03:38 437.250
QB50P2 05 Dec 23:57:47 00:01:56 52° 287° (WNW) 00:06:01 145.880/145.840
POLYITAN 1 05 Dec 23:58:19 00:02:28 54° 287° (WNW) 00:06:35 437.675
50 SAT 06 Dec 00:06:39 00:09:00 17° 266° (W) 00:11:21 437.505
ISS 06 Dec 00:07:28 00:08:15 11° 231° (SW) 00:09:04 145.825
QB50P1 06 Dec 00:11:37 00:15:35 39° 289° (WNW) 00:19:31 145.935-145.965
DUCHIFAT 1 06 Dec 00:14:44 00:18:44 42° 289° (WNW) 00:22:41 145.980
Oscar 19 06 Dec 00:24:54 00:28:56 22° 94° (E) 00:32:57 437.125/150
O/OREOS (USA 219) 06 Dec 00:25:13 00:28:14 17° 54° (NE) 00:31:15 437.305
Cosmos 2499 06 Dec 00:25:57 00:34:28 79° 95° (E) 00:43:23 435.465 / 435.565
AUBIESAT-1 06 Dec 00:27:06 00:30:20 22° 60° (ENE) 00:33:44 437.475
POPSAT HIP 1 06 Dec 00:33:32 00:36:58 24° 293° (WNW) 00:40:22 437.405
VELOX 1 06 Dec 00:36:24 00:37:17 10° 271° (W) 00:38:10 145.980
M-CUBED/EXP-1 PRIME 06 Dec 00:38:28 00:42:12 34° 64° (ENE) 00:46:11 437.505
GONETS M04 06 Dec 00:38:34 00:47:18 84° 96° (E) 00:56:02
SWISSCUBE 06 Dec 00:40:36 00:44:30 26° 66° (ENE) 00:48:25 437.505
PHONESAT 2.4 06 Dec 00:41:05 00:43:30 31° 161° (SSE) 00:45:54 2401.200-2431.200
BEESAT 06 Dec 00:44:42 00:48:35 25° 66° (ENE) 00:52:28 436.000
DX 1 06 Dec 00:49:13 00:51:21 13° 269° (W) 00:53:30 434.975-435.025
TISAT 1 06 Dec 00:54:49 00:58:57 51° 260° (W) 01:03:06 437.305
UKube-1 06 Dec 00:56:33 00:58:57 15° 268° (W) 01:01:23 .
ITUPSAT 1 06 Dec 01:11:23 01:15:56 45° 70° (ENE) 01:20:29 437.325
AO-85 06 Dec 01:11:38 01:16:05 33° 115° (ESE) 01:20:15 145.980
BUGSAT 1 06 Dec 01:13:16 01:16:43 25° 292° (WNW) 01:20:08 437.445
JAS-2 06 Dec 01:25:29 01:25:44 10° 303° (WNW) 01:26:00 435.910
MOZHAYETS 4 06 Dec 01:52:43 01:56:37 28° 68° (ENE) 02:00:30
AO-7 06 Dec 01:54:46 01:59:22 16° 89° (E) 02:03:58 29.400- 29.500
Gurwin Techsat 1B 06 Dec 01:57:29 02:02:50 83° 102° (ESE) 02:08:09 435.225
AUBIESAT-1 06 Dec 02:00:40 02:04:28 36° 258° (WSW) 02:08:33 437.475
Oscar 19 06 Dec 02:03:31 02:08:27 45° 290° (WNW) 02:13:22 437.125/150
O/OREOS (USA 219) 06 Dec 02:03:37 02:07:58 51° 252° (WSW) 02:12:17 437.305
M-CUBED/EXP-1 PRIME 06 Dec 02:13:31 02:16:44 22° 262° (W) 02:20:09 437.505
PHONESAT 2.4 06 Dec 02:15:55 02:18:33 66° 178° (S) 02:21:11 2401.200-2431.200
SWISSCUBE 06 Dec 02:17:47 02:22:07 35° 262° (W) 02:26:29 437.505
BEESAT 06 Dec 02:21:49 02:26:11 35° 262° (W) 02:30:34 436.000
Cosmos 2499 06 Dec 02:21:55 02:28:36 24° 296° (WNW) 02:35:30 435.465 / 435.565
KKS-1 06 Dec 02:24:32 02:28:15 26° 67° (ENE) 02:31:59 437.445
ITAMSAT 1 06 Dec 02:31:22 02:36:13 39° 98° (E) 02:41:01 435.822/435.867
STARS 06 Dec 02:32:20 02:34:56 15° 63° (ENE) 02:37:32 437.465
GONETS M04 06 Dec 02:38:58 02:45:14 21° 297° (WNW) 02:51:32
ITUPSAT 1 06 Dec 02:50:30 02:53:58 20° 267° (W) 02:57:25 437.325
AO-85 06 Dec 02:52:08 02:56:30 32° 311° (NW) 03:00:35 145.980
MOZHAYETS 4 06 Dec 03:29:42 03:33:42 29° 264° (W) 03:37:42
CUBESAT XI-V 06 Dec 03:31:25 03:35:44 42° 71° (ENE) 03:40:04 437.345
Gurwin Techsat 1B 06 Dec 03:39:23 03:42:04 14° 301° (WNW) 03:44:46 435.225
AO-7 06 Dec 03:44:53 03:53:19 81° 107° (ESE) 04:01:43 29.400- 29.500
PHONESAT 2.4 06 Dec 03:51:08 03:53:40 41° 194° (SSW) 03:56:11 2401.200-2431.200
SO-50 06 Dec 03:59:20 04:03:34 37° 49° (NE) 04:07:43 436.795
KKS-1 06 Dec 04:00:46 04:04:41 30° 263° (W) 04:08:40 437.445
BEESAT 3 06 Dec 04:05:15 04:08:24 24° 114° (ESE) 04:11:37 437.485
STARS 06 Dec 04:06:29 04:10:49 55° 259° (W) 04:15:12 437.465
GOMX 1 06 Dec 04:11:07 04:12:19 11° 86° (E) 04:13:29 467.674
ITAMSAT 1 06 Dec 04:11:12 04:15:29 27° 295° (WNW) 04:19:45 435.822/435.867
YUBILEINY 06 Dec 04:15:56 04:22:03 20° 62° (ENE) 04:28:09 435.215
BRITE-PL 06 Dec 04:31:20 04:36:26 39° 97° (E) 04:41:42 437.365/2234.400
BEESAT 2 06 Dec 04:34:14 04:37:21 23° 113° (ESE) 04:40:29 435.950
Cosmos 2491 06 Dec 04:48:43 04:52:16 13° 74° (ENE) 04:55:49 435.465 / 435.565
HORYU 2 06 Dec 05:05:13 05:09:36 55° 101° (E) 05:13:55 437.375
CUBESAT XI-V 06 Dec 05:10:02 05:13:17 19° 267° (W) 05:16:34 437.345
AIST 1 06 Dec 05:15:34 05:15:39 10° 66° (ENE) 05:15:45
Cosmos 2504 06 Dec 05:26:02 05:33:13 27° 66° (ENE) 05:40:05 435.465 / 435.565
PHONESAT 2.4 06 Dec 05:27:35 05:28:28 11° 209° (SSW) 05:29:21 2401.200-2431.200
STRAND 1 06 Dec 05:29:30 05:33:54 30° 66° (ENE) 05:38:20 437.568
AO-7 06 Dec 05:38:48 05:45:12 25° 307° (NW) 05:51:37 29.400- 29.500
SO-50 06 Dec 05:40:09 05:43:51 25° 247° (WSW) 05:47:29 436.795
BEESAT 3 06 Dec 05:42:26 05:45:55 30° 311° (NW) 05:49:27 437.485
CUTE-I 06 Dec 05:44:00 05:49:00 40° 98° (E) 05:53:58 437.470
GOMX 1 06 Dec 05:45:35 05:51:05 83° 103° (ESE) 05:56:35 467.674
RS-15 06 Dec 05:50:54 06:00:35 32° 103° (ESE) 06:10:36 29.354- 29.394
NOAA 18 06 Dec 05:52:58 05:57:49 30° 96° (E) 06:02:37 137.9125
DOVE 4 06 Dec 05:56:33 06:01:41 47° 98° (E) 06:06:38 437.250
LilacSat-2 06 Dec 05:57:39 06:01:25 63° 100° (E) 06:05:08 437.200
NOAA 15 06 Dec 06:06:45 06:12:02 72° 103° (ESE) 06:17:18 137.62
Cubesat XI-IV 06 Dec 06:09:45 06:15:05 68° 102° (ESE) 06:20:23 437.490
BRITE-PL 06 Dec 06:10:05 06:14:43 30° 292° (WNW) 06:19:32 437.365/2234.400
HO-68 06 Dec 06:10:22 06:14:17 15° 89° (E) 06:18:11 435.675
YUBILEINY 06 Dec 06:11:14 06:20:07 89° 267° (W) 06:28:58 435.215
BEESAT 2 06 Dec 06:11:22 06:14:57 33° 310° (NW) 06:18:36 435.950
Cosmos 2491 06 Dec 06:38:42 06:47:26 73° 94° (E) 06:56:09 435.465 / 435.565
HORYU 2 06 Dec 06:43:09 06:45:41 15° 297° (WNW) 06:48:12 437.375
AIST 1 06 Dec 06:49:24 06:53:50 76° 264° (W) 06:58:13
AIST 2 06 Dec 07:01:22 07:04:31 22° 112° (ESE) 07:07:42 435.215
STRAND 1 06 Dec 07:08:20 07:12:59 34° 263° (W) 07:17:38 437.568
CINEMA 3 06 Dec 07:15:10 07:20:01 72° 101° (ESE) 07:24:36 145.822/145.860
Cosmos 2504 06 Dec 07:18:39 07:27:24 70° 267° (W) 07:35:38 435.465 / 435.565
CUTE 1.7 + AOD 2 06 Dec 07:22:14 07:26:21 49° 99° (E) 07:30:26 437.475
CUTE-I 06 Dec 07:24:25 07:28:51 27° 295° (WNW) 07:33:14 437.470
GOMX 1 06 Dec 07:25:26 07:28:26 15° 299° (WNW) 07:31:25 467.674
CUBEBUG 2 06 Dec 07:33:26 07:37:09 26° 95° (E) 07:40:45 437.445
NOAA 18 06 Dec 07:33:27 07:38:30 37° 293° (WNW) 07:43:30 137.9125
DOVE 4 06 Dec 07:34:52 07:39:00 24° 295° (WNW) 07:43:03 437.250
CANX-2 06 Dec 07:40:12 07:44:25 86° 285° (WNW) 07:48:39 2200.000
AAUSAT CUBESAT 2 06 Dec 07:45:49 07:49:32 31° 97° (E) 07:53:13 437.432
NOAA 15 06 Dec 07:48:04 07:51:12 16° 300° (WNW) 07:54:20 137.62
Cubesat XI-IV 06 Dec 07:51:13 07:54:35 17° 300° (WNW) 07:57:55 437.490
HO-68 06 Dec 07:55:40 08:02:56 87° 108° (ESE) 08:10:09 435.675
PRISM 06 Dec 07:58:49 08:02:49 62° 74° (ENE) 08:06:51 437.425
Oscar 11 06 Dec 07:59:24 08:02:18 17° 92° (E) 08:05:11 145.826/435.025
RS-15 06 Dec 08:00:04 08:11:53 77° 305° (NW) 08:24:17 29.354- 29.394
SEEDS 06 Dec 08:05:31 08:09:42 77° 284° (WNW) 08:13:54 437.485
YUBILEINY 06 Dec 08:10:15 08:15:35 18° 283° (WNW) 08:20:58 435.215
UWE-3 06 Dec 08:15:26 08:19:37 48° 99° (E) 08:23:41 435.000/436.395/437.385
COMPASS 1 06 Dec 08:15:48 08:19:58 88° 286° (WNW) 08:24:08 437.405
UNISAT 6 06 Dec 08:32:49 08:37:01 33° 70° (ENE) 08:41:11 437.425
Cosmos 2491 06 Dec 08:38:11 08:45:06 25° 295° (WNW) 08:52:03 435.465 / 435.565
AIST 2 06 Dec 08:38:56 08:42:46 37° 310° (NW) 08:46:39 435.215
DELFI C3 06 Dec 08:44:17 08:47:07 18° 93° (E) 08:49:56 145.870
HUMSAT D 06 Dec 08:49:57 08:50:53 11° 90° (E) 08:51:49 437.325/437.525
CINEMA 3 06 Dec 08:54:07 08:56:27 14° 299° (WNW) 08:58:44 145.822/145.860
ZACube-1 06 Dec 08:56:15 09:00:32 86° 105° (ESE) 09:04:41 437.345
CUTE 1.7 + AOD 2 06 Dec 08:59:22 09:01:47 15° 295° (WNW) 09:04:10 437.475
TIGRISAT 06 Dec 09:02:16 09:06:54 63° 74° (ENE) 09:11:30 435.000
ANTELSAT 06 Dec 09:03:44 09:08:24 69° 74° (ENE) 09:13:02 437.575/2403.000
FUNcube-1 06 Dec 09:03:55 09:08:10 85° 281° (W) 09:12:18 145.935
CUBEBUG 2 06 Dec 09:09:59 09:13:43 27° 292° (WNW) 09:17:20 437.445
Cosmos 2504 06 Dec 09:15:39 09:18:58 13° 288° (WNW) 09:22:14 435.465 / 435.565
QB50P2 06 Dec 09:17:31 09:19:03 12° 62° (ENE) 09:20:36 145.880/145.840
POLYITAN 1 06 Dec 09:18:16 09:19:36 11° 61° (ENE) 09:20:56 437.675
AAUSAT CUBESAT 2 06 Dec 09:21:38 09:24:49 22° 292° (WNW) 09:28:01 437.432
QB50P1 06 Dec 09:30:01 09:32:28 15° 64° (ENE) 09:34:55 145.935-145.965
DUCHIFAT 1 06 Dec 09:32:57 09:35:07 14° 63° (ENE) 09:37:17 145.980
Oscar 11 06 Dec 09:34:34 09:38:36 40° 288° (WNW) 09:42:37 145.826/435.025
CUSAT 1 06 Dec 09:37:00 09:39:57 36° 282° (WNW) 09:42:32 437.405
PRISM 06 Dec 09:37:47 09:38:30 10° 270° (W) 09:39:13 437.425
AO-85 06 Dec 09:43:03 09:46:29 27° 47° (NE) 09:49:49 145.980
HO-68 06 Dec 09:44:53 09:49:44 20° 305° (NW) 09:54:35 435.675
JAS-2 06 Dec 09:48:14 09:54:19 45° 70° (ENE) 09:59:46 435.910
POPSAT HIP 1 06 Dec 09:50:24 09:53:50 24° 67° (ENE) 09:57:16 437.405
UWE-3 06 Dec 09:53:06 09:55:39 16° 296° (WNW) 09:58:10 435.000/436.395/437.385
PCSat 06 Dec 10:01:56 10:05:36 19° 105° (ESE) 10:09:17 145.827
ESTCUBE 1 06 Dec 10:05:16 10:06:47 11° 90° (E) 10:08:17 437.505/2401.250
UNISAT 6 06 Dec 10:09:51 10:13:44 25° 265° (W) 10:17:36 437.425
RS-15 06 Dec 10:16:31 10:26:51 31° 334° (NNW) 10:37:28 29.354- 29.394
Cosmos 2499 06 Dec 10:18:07 10:25:27 30° 67° (ENE) 10:32:21 435.465 / 435.565
DELFI C3 06 Dec 10:18:25 10:22:00 33° 289° (WNW) 10:25:35 145.870
HUMSAT D 06 Dec 10:22:51 10:26:52 59° 286° (WNW) 10:30:52 437.325/437.525
DANDE 06 Dec 10:22:55 10:27:31 55° 280° (W) 10:31:01 436.750
BUGSAT 1 06 Dec 10:27:59 10:31:09 21° 66° (ENE) 10:34:20 437.445
CUBEBUG 1 06 Dec 10:35:44 10:38:18 15° 91° (E) 10:40:53 437.445
TIGRISAT 06 Dec 10:41:37 10:43:57 14° 270° (W) 10:46:16 435.000
ANTELSAT 06 Dec 10:43:37 10:45:32 12° 271° (W) 10:47:26 437.575/2403.000
NANOSAT C BR1 06 Dec 10:43:54 10:48:11 87° 73° (ENE) 10:52:29 145.865
VELOX 1 06 Dec 10:47:25 10:49:34 13° 91° (E) 10:51:42 145.980
GONETS M04 06 Dec 10:48:42 10:56:53 42° 73° (ENE) 11:05:02
QB50P2 06 Dec 10:50:00 10:54:15 70° 258° (WSW) 10:58:34 145.880/145.840
POLYITAN 1 06 Dec 10:50:30 10:54:47 73° 257° (WSW) 10:59:06 437.675
QB50P1 06 Dec 11:03:37 11:07:48 52° 260° (W) 11:12:00 145.935-145.965
DUCHIFAT 1 06 Dec 11:06:07 11:10:19 57° 260° (W) 11:14:31 145.980
SPROUT 06 Dec 11:18:09 11:21:12 19° 93° (E) 11:24:13 437.525
AO-85 06 Dec 11:23:29 11:26:49 27° 246° (WSW) 11:30:06 145.980
POPSAT HIP 1 06 Dec 11:25:39 11:29:27 30° 263° (W) 11:33:16 437.405
50 SAT 06 Dec 11:31:16 11:34:27 30° 97° (E) 11:37:37 437.505
JAS-2 06 Dec 11:34:03 11:39:30 28° 264° (W) 11:44:27 435.910
ESTCUBE 1 06 Dec 11:39:32 11:44:02 68° 285° (WNW) 11:48:31 437.505/2401.250
Gurwin Techsat 1B 06 Dec 11:41:11 11:44:45 19° 61° (ENE) 11:48:20 435.225
Oscar 19 06 Dec 11:41:51 11:46:24 34° 67° (ENE) 11:50:59 437.125/150
PCSat 06 Dec 11:43:07 11:48:28 62° 303° (WNW) 11:53:52 145.827
AISAT 06 Dec 11:45:02 11:49:29 59° 101° (E) 11:53:52 437.250
BUGSAT 1 06 Dec 12:02:25 12:06:17 35° 263° (W) 12:10:12 437.445
CUBEBUG 1 06 Dec 12:10:33 12:14:52 51° 287° (WNW) 12:19:10 437.445
Cosmos 2499 06 Dec 12:10:43 12:19:10 61° 269° (W) 12:26:58 435.465 / 435.565
BEESAT 3 06 Dec 12:21:42 12:24:36 19° 44° (NE) 12:27:30 437.485
VELOX 1 06 Dec 12:21:59 12:26:23 59° 287° (WNW) 12:30:46 145.980
DX 1 06 Dec 12:34:18 12:38:43 81° 285° (WNW) 12:43:06 434.975-435.025
RS-15 06 Dec 12:35:16 12:44:50 25° 10° (N) 12:54:23 29.354- 29.394
TISAT 1 06 Dec 12:38:48 12:42:10 23° 95° (E) 12:45:30 437.305
UKube-1 06 Dec 12:40:52 12:45:14 89° 90° (E) 12:49:34 .
GONETS M04 06 Dec 12:45:39 12:53:39 43° 273° (W) 13:01:42
BEESAT 2 06 Dec 12:51:27 12:54:20 19° 44° (NE) 12:57:13 435.950
SPROUT 06 Dec 12:53:16 12:57:16 38° 289° (WNW) 13:01:12 437.525
AO-7 06 Dec 12:53:45 13:00:15 26° 54° (NE) 13:06:46 29.400- 29.500
50 SAT 06 Dec 13:05:12 13:07:31 17° 293° (WNW) 13:09:50 437.505
ITUPSAT 1 06 Dec 13:14:17 13:15:19 11° 89° (E) 13:16:21 437.325
Gurwin Techsat 1B 06 Dec 13:18:56 13:24:11 62° 259° (WSW) 13:29:29 435.225
Oscar 19 06 Dec 13:21:15 13:25:43 30° 264° (W) 13:30:12 437.125/150
AISAT 06 Dec 13:22:59 13:25:26 15° 298° (WNW) 13:27:53 437.250
PCSat 06 Dec 13:30:41 13:33:00 13° 324° (NW) 13:35:21 145.827
AUBIESAT-1 06 Dec 13:39:42 13:42:29 16° 96° (E) 13:45:12 437.475
ITAMSAT 1 06 Dec 13:49:24 13:54:32 62° 72° (ENE) 13:59:41 435.822/435.867
M-CUBED/EXP-1 PRIME 06 Dec 13:51:22 13:55:19 26° 99° (E) 13:59:06 437.505
BEESAT 3 06 Dec 13:58:38 14:02:28 46° 242° (WSW) 14:06:16 437.485
TISAT 1 06 Dec 14:14:06 14:17:49 30° 291° (WNW) 14:21:30 437.305
SWISSCUBE 06 Dec 14:17:02 14:21:43 56° 101° (E) 14:26:23 437.505
BEESAT 06 Dec 14:21:02 14:25:44 55° 101° (E) 14:30:23 436.000
BEESAT 2 06 Dec 14:28:29 14:32:24 49° 242° (WSW) 14:36:17 435.950
O/OREOS (USA 219) 06 Dec 14:38:20 14:41:19 17° 100° (E) 14:44:18 437.305
AO-7 06 Dec 14:43:55 14:52:13 77° 254° (WSW) 15:00:35 29.400- 29.500
ITUPSAT 1 06 Dec 14:48:56 14:53:42 79° 286° (WNW) 14:58:27 437.325
RS-15 06 Dec 14:49:40 15:01:34 48° 42° (NE) 15:13:07 29.354- 29.394
ISS 06 Dec 15:09:36 15:12:15 23° 134° (SE) 15:14:56 145.825
AUBIESAT-1 06 Dec 15:12:41 15:17:13 54° 292° (WNW) 15:21:30 437.475
GOMX 1 06 Dec 15:20:25 15:21:18 10° 57° (ENE) 15:22:10 467.674
AIST 2 06 Dec 15:21:51 15:24:59 20° 44° (NE) 15:28:05 435.215
MOZHAYETS 4 06 Dec 15:23:32 15:28:04 62° 101° (E) 15:32:34
M-CUBED/EXP-1 PRIME 06 Dec 15:25:32 15:29:45 34° 296° (WNW) 15:33:51 437.505
CUBESAT XI-V 06 Dec 15:30:39 15:31:09 10° 88° (E) 15:31:38 437.345
ITAMSAT 1 06 Dec 15:31:11 15:34:24 16° 269° (W) 15:37:38 435.822/435.867
BRITE-PL 06 Dec 15:43:07 15:47:06 38° 70° (ENE) 15:51:21 437.365/2234.400
NOAA 15 06 Dec 15:50:07 15:53:13 16° 60° (ENE) 15:56:20 137.62
KKS-1 06 Dec 15:50:43 15:55:04 48° 100° (E) 15:59:24 437.445
Cubesat XI-IV 06 Dec 15:54:42 15:57:55 16° 60° (ENE) 16:01:08 437.490
STARS 06 Dec 15:55:54 15:59:36 25° 95° (E) 16:03:15 437.465
SWISSCUBE 06 Dec 15:56:03 15:59:03 17° 298° (WNW) 16:02:02 437.505
BEESAT 06 Dec 16:00:01 16:03:03 17° 298° (WNW) 16:06:05 436.000
HORYU 2 06 Dec 16:03:06 16:07:28 53° 72° (ENE) 16:11:50 437.375
O/OREOS (USA 219) 06 Dec 16:15:56 16:20:20 46° 297° (WNW) 16:24:44 437.305
LilacSat-2 06 Dec 16:39:46 16:43:12 31° 71° (ENE) 16:46:38 437.200
HO-68 06 Dec 16:41:23 16:44:39 14° 50° (NE) 16:47:56 435.675
AO-7 06 Dec 16:42:12 16:46:14 14° 272° (W) 16:50:20 29.400- 29.500
ISS 06 Dec 16:45:25 16:48:36 44° 332° (NNW) 16:51:47 145.825
Cosmos 2491 06 Dec 16:49:06 16:56:59 36° 71° (ENE) 17:04:49 435.465 / 435.565
GOMX 1 06 Dec 16:53:52 16:58:26 87° 78° (ENE) 17:03:23 467.674
AIST 2 06 Dec 16:59:37 17:03:44 51° 242° (WSW) 17:07:49 435.215
DOVE 4 06 Dec 17:01:47 17:06:21 45° 71° (ENE) 17:11:11 437.250
MOZHAYETS 4 06 Dec 17:02:18 17:04:43 14° 298° (WNW) 17:07:06
RS-15 06 Dec 17:02:33 17:14:35 62° 247° (WSW) 17:26:12 29.354- 29.394
CUBESAT XI-V 06 Dec 17:04:24 17:09:04 80° 284° (WNW) 17:13:45 437.345
CUTE-I 06 Dec 17:05:53 17:11:13 68° 72° (ENE) 17:16:33 437.470
YUBILEINY 06 Dec 17:18:52 17:24:56 21° 79° (ENE) 17:31:00 435.215
NOAA 18 06 Dec 17:19:15 17:24:40 60° 71° (ENE) 17:30:09 137.9125
BRITE-PL 06 Dec 17:22:41 17:25:48 19° 269° (W) 17:29:04 437.365/2234.400
NOAA 15 06 Dec 17:27:10 17:32:23 71° 257° (WSW) 17:37:38 137.62
KKS-1 06 Dec 17:28:19 17:31:14 17° 296° (WNW) 17:34:10 437.445
Cubesat XI-IV 06 Dec 17:31:59 17:37:21 73° 257° (WSW) 17:42:45 437.490
STARS 06 Dec 17:32:04 17:35:55 30° 292° (WNW) 17:39:44 437.465
HORYU 2 06 Dec 17:41:48 17:44:19 15° 268° (W) 17:46:51 437.375
Cosmos 2504 06 Dec 18:05:56 18:11:42 21° 78° (ENE) 18:17:39 435.465 / 435.565
LilacSat-2 06 Dec 18:14:52 18:17:33 18° 267° (W) 18:20:14 437.200
CUTE 1.7 + AOD 2 06 Dec 18:15:02 18:18:53 36° 71° (ENE) 18:22:44 437.475
CINEMA 3 06 Dec 18:16:00 18:20:53 66° 75° (ENE) 18:25:53 145.822/145.860
SO-50 06 Dec 18:17:03 18:18:13 11° 107° (ESE) 18:19:23 436.795
ISS 06 Dec 18:23:31 18:25:43 16° 350° (N) 18:27:56 145.825
HO-68 06 Dec 18:23:59 18:31:03 67° 70° (ENE) 18:38:10 435.675
CUBEBUG 2 06 Dec 18:31:18 18:35:12 26° 68° (ENE) 18:39:05 437.445
CANX-2 06 Dec 18:32:47 18:36:58 67° 75° (ENE) 18:41:09 2200.000
AAUSAT CUBESAT 2 06 Dec 18:36:34 18:39:44 22° 68° (ENE) 18:42:53 437.432
DOVE 4 06 Dec 18:40:42 18:44:17 21° 269° (W) 18:48:01 437.250
Cosmos 2491 06 Dec 18:45:45 18:54:02 50° 271° (W) 19:02:18 435.465 / 435.565
PCSat 06 Dec 18:48:10 18:52:07 20° 44° (NE) 18:56:03 145.827
CUTE-I 06 Dec 18:48:35 18:51:43 16° 270° (W) 18:54:52 437.470
Oscar 11 06 Dec 18:55:03 18:57:31 15° 64° (ENE) 18:59:59 145.826/435.025
SEEDS 06 Dec 18:57:00 19:01:09 73° 75° (ENE) 19:05:18 437.485
NOAA 18 06 Dec 19:01:53 19:05:42 19° 268° (W) 19:09:34 137.9125
COMPASS 1 06 Dec 19:06:21 19:10:24 61° 75° (ENE) 19:14:29 437.405
